owner,sensor,date,latitude,longitude,vertical_datum,wind_speed,wind_to_direction,wind_speed_of_gust,qcFlag 
TCOON,ioos:station:TCOON:057:1,2008-07-01T00:00:00Z,28.4460,-96.3961,0.0,4.6,148.0,5.2,'11111222,11111222,11111222' 
TCOON,ioos:station:TCOON:057:1,2008-07-01T01:00:00Z,28.4460,-96.3961,0.0,4.8,151.0,5.6,'11111222,11111222,11111222' 
TCOON,ioos:station:TCOON:057:1,2008-07-01T03:00:00Z,28.4460,-96.3961,0.0,4.6,138.0,5.6,'11111222,11111222,11111222' 
TCOON,ioos:station:TCOON:057:1,2008-07-01T04:00:00Z,28.4460,-96.3961,0.0,4.0,143.0,4.7,'11111222,11111222,11111222' 
TCOON,ioos:station:TCOON:057:1,2008-07-01T05:00:00Z,28.4460,-96.3961,0.0,3.9,170.0,4.7,'11111222,11111222,11111222' 
TCOON,ioos:station:TCOON:057:1,2008-07-01T06:00:00Z,28.4460,-96.3961,0.0,3.1,162.0,3.6,'11111222,11111222,11111222' 
TCOON,ioos:station:TCOON:057:1,2008-07-01T07:00:00Z,28.4460,-96.3961,0.0,3.8,150.0,4.7,'11111222,11111222,11111222' 
TCOON,ioos:station:TCOON:057:1,2008-07-01T08:00:00Z,28.4460,-96.3961,0.0,3.8,168.0,4.5,'11111222,11111222,11111222' 
TCOON,ioos:station:TCOON:057:1,2008-07-01T09:00:00Z,28.4460,-96.3961,0.0,3.2,181.0,4.1,'11111222,11111222,11111222' 
TCOON,ioos:station:TCOON:057:1,2008-07-01T10:00:00Z,28.4460,-96.3961,0.0,0.2,222.0,1.2,'11111222,11111222,11111222' 
TCOON,ioos:station:TCOON:057:1,2008-07-01T11:00:00Z,28.4460,-96.3961,0.0,0.0,231.0,99.0,'11111222,11111222,11144222' 
TCOON,ioos:station:TCOON:057:1,2008-07-01T12:00:00Z,28.4460,-96.3961,0.0,0.0,286.0,99.0,'11111222,11111222,11144222' 
TCOON,ioos:station:TCOON:057:1,2008-07-01T13:00:00Z,28.4460,-96.3961,0.0,0.3,339.0,2.3,'11111222,11111222,11111222' 
TCOON,ioos:station:TCOON:057:1,2008-07-01T14:00:00Z,28.4460,-96.3961,0.0,5.3,53.0,5.8,'11111222,11111222,11111222' 
TCOON,ioos:station:TCOON:057:1,2008-07-01T15:00:00Z,28.4460,-96.3961,0.0,4.6,44.0,5.1,'11111222,11111222,11111222' 
TCOON,ioos:station:TCOON:057:1,2008-07-01T16:00:00Z,28.4460,-96.3961,0.0,3.4,55.0,4.2,'11111222,11111222,11111222' 
TCOON,ioos:station:TCOON:057:1,2008-07-01T17:00:00Z,28.4460,-96.3961,0.0,2.6,63.0,3.7,'11111222,11111222,11111222' 
TCOON,ioos:station:TCOON:057:1,2008-07-01T18:00:00Z,28.4460,-96.3961,0.0,0.7,62.0,1.8,'11111222,11111222,11111222' 
TCOON,ioos:station:TCOON:057:1,2008-07-01T19:00:00Z,28.4460,-96.3961,0.0,3.4,133.0,4.0,'11111222,11111222,11111222' 
TCOON,ioos:station:TCOON:057:1,2008-07-01T20:00:00Z,28.4460,-96.3961,0.0,5.3,152.0,6.2,'11111222,11111222,11111222' 
TCOON,ioos:station:TCOON:057:1,2008-07-01T21:00:00Z,28.4460,-96.3961,0.0,6.0,155.0,6.7,'11111222,11111222,11111222' 
TCOON,ioos:station:TCOON:057:1,2008-07-01T22:00:00Z,28.4460,-96.3961,0.0,5.3,151.0,6.5,'11111222,11111222,11111222' 
TCOON,ioos:station:TCOON:057:1,2008-07-01T23:00:00Z,28.4460,-96.3961,0.0,4.7,161.0,5.8,'11111222,11111222,11111222' 
TCOON,ioos:station:TCOON:057:1,2008-07-02T00:00:00Z,28.4460,-96.3961,0.0,2.7,167.0,3.4,'11111222,11111222,11111222' 
TCOON,ioos:station:TCOON:057:1,2008-07-02T01:00:00Z,28.4460,-96.3961,0.0,3.3,163.0,3.9,'11111222,11111222,11111222' 
TCOON,ioos:station:TCOON:057:1,2008-07-02T02:00:00Z,28.4460,-96.3961,0.0,4.6,170.0,5.1,'11111222,11111222,11111222' 
TCOON,ioos:station:TCOON:057:1,2008-07-02T03:00:00Z,28.4460,-96.3961,0.0,2.4,210.0,3.2,'11111222,11111222,11111222' 
TCOON,ioos:station:TCOON:057:1,2008-07-02T04:00:00Z,28.4460,-96.3961,0.0,0.0,192.0,99.0,'11111222,11111222,11144222' 
TCOON,ioos:station:TCOON:057:1,2008-07-02T05:00:00Z,28.4460,-96.3961,0.0,0.0,217.0,99.0,'11111222,11111222,11144222' 
TCOON,ioos:station:TCOON:057:1,2008-07-02T06:00:00Z,28.4460,-96.3961,0.0,0.0,166.0,99.0,'11111222,11111222,11144222' 
TCOON,ioos:station:TCOON:057:1,2008-07-02T07:00:00Z,28.4460,-96.3961,0.0,2.1,130.0,2.4,'11111222,11111222,11111222' 
TCOON,ioos:station:TCOON:057:1,2008-07-02T08:00:00Z,28.4460,-96.3961,0.0,3.5,159.0,4.2,'11111222,11111222,11111222' 
TCOON,ioos:station:TCOON:057:1,2008-07-02T09:00:00Z,28.4460,-96.3961,0.0,3.3,161.0,4.4,'11111222,11111222,11111222' 
TCOON,ioos:station:TCOON:057:1,2008-07-02T10:00:00Z,28.4460,-96.3961,0.0,2.7,168.0,3.2,'11111222,11111222,11111222' 
TCOON,ioos:station:TCOON:057:1,2008-07-02T11:00:00Z,28.4460,-96.3961,0.0,2.7,161.0,3.5,'11111222,11111222,11111222' 
TCOON,ioos:station:TCOON:057:1,2008-07-02T12:00:00Z,28.4460,-96.3961,0.0,2.4,150.0,3.0,'11111222,11111222,11111222' 
TCOON,ioos:station:TCOON:057:1,2008-07-02T13:00:00Z,28.4460,-96.3961,0.0,0.0,95.0,99.0,'11111222,11111222,11144222' 
TCOON,ioos:station:TCOON:057:1,2008-07-02T14:00:00Z,28.4460,-96.3961,0.0,0.0,62.0,99.0,'11111222,11111222,11144222' 
TCOON,ioos:station:TCOON:057:1,2008-07-02T15:00:00Z,28.4460,-96.3961,0.0,0.0,137.0,99.0,'11111222,11111222,11144222' 
TCOON,ioos:station:TCOON:057:1,2008-07-02T16:00:00Z,28.4460,-96.3961,0.0,6.3,165.0,7.3,'11111222,11111222,11111222' 
TCOON,ioos:station:TCOON:057:1,2008-07-02T17:00:00Z,28.4460,-96.3961,0.0,6.4,163.0,7.9,'11111222,11111222,11111222' 
TCOON,ioos:station:TCOON:057:1,2008-07-02T18:00:00Z,28.4460,-96.3961,0.0,7.7,164.0,9.0,'11111222,11111222,11111222' 
TCOON,ioos:station:TCOON:057:1,2008-07-02T19:00:00Z,28.4460,-96.3961,0.0,4.3,215.0,5.0,'11111222,11111222,11111222' 
TCOON,ioos:station:TCOON:057:1,2008-07-02T20:00:00Z,28.4460,-96.3961,0.0,3.2,170.0,4.0,'11111222,11111222,11111222' 
TCOON,ioos:station:TCOON:057:1,2008-07-02T21:00:00Z,28.4460,-96.3961,0.0,1.9,178.0,2.9,'11111222,11111222,11111222' 
TCOON,ioos:station:TCOON:057:1,2008-07-02T22:00:00Z,28.4460,-96.3961,0.0,1.5,164.0,2.9,'11111222,11111222,11111222' 
TCOON,ioos:station:TCOON:057:1,2008-07-02T23:00:00Z,28.4460,-96.3961,0.0,0.3,152.0,2.4,'11111222,11111222,11111222' 
TCOON,ioos:station:TCOON:057:1,2008-07-03T00:00:00Z,28.4460,-96.3961,0.0,4.7,172.0,5.6,'11111222,11111222,11111222' 
TCOON,ioos:station:TCOON:057:1,2008-07-03T01:00:00Z,28.4460,-96.3961,0.0,3.7,145.0,4.8,'11111222,11111222,11111222' 
TCOON,ioos:station:TCOON:057:1,2008-07-03T02:00:00Z,28.4460,-96.3961,0.0,1.1,149.0,3.7,'11111222,11111222,11111222' 
TCOON,ioos:station:TCOON:057:1,2008-07-03T03:00:00Z,28.4460,-96.3961,0.0,2.6,159.0,5.8,'11111222,11111222,11111222' 
TCOON,ioos:station:TCOON:057:1,2008-07-03T04:00:00Z,28.4460,-96.3961,0.0,1.2,163.0,3.6,'11111222,11111222,11111222' 
TCOON,ioos:station:TCOON:057:1,2008-07-03T05:00:00Z,28.4460,-96.3961,0.0,0.7,190.0,1.4,'11111222,11111222,11111222' 
TCOON,ioos:station:TCOON:057:1,2008-07-03T06:00:00Z,28.4460,-96.3961,0.0,1.5,192.0,2.1,'11111222,11111222,11111222' 
TCOON,ioos:station:TCOON:057:1,2008-07-03T07:00:00Z,28.4460,-96.3961,0.0,1.4,175.0,4.6,'11111222,11111222,11111222' 
TCOON,ioos:station:TCOON:057:1,2008-07-03T08:00:00Z,28.4460,-96.3961,0.0,2.6,160.0,4.7,'11111222,11111222,11111222' 
TCOON,ioos:station:TCOON:057:1,2008-07-03T09:00:00Z,28.4460,-96.3961,0.0,3.7,164.0,6.3,'11111222,11111222,11111222' 
TCOON,ioos:station:TCOON:057:1,2008-07-03T10:00:00Z,28.4460,-96.3961,0.0,0.9,164.0,2.7,'11111222,11111222,11111222' 
TCOON,ioos:station:TCOON:057:1,2008-07-03T11:00:00Z,28.4460,-96.3961,0.0,1.1,164.0,3.3,'11111222,11111222,11111222' 
TCOON,ioos:station:TCOON:057:1,2008-07-03T12:00:00Z,28.4460,-96.3961,0.0,2.0,151.0,3.0,'11111222,11111222,11111222' 
TCOON,ioos:station:TCOON:057:1,2008-07-03T13:00:00Z,28.4460,-96.3961,0.0,1.3,134.0,3.2,'11111222,11111222,11111222' 
TCOON,ioos:station:TCOON:057:1,2008-07-03T15:00:00Z,28.4460,-96.3961,0.0,1.3,135.0,4.6,'11111222,11111222,11111222' 
TCOON,ioos:station:TCOON:057:1,2008-07-03T16:00:00Z,28.4460,-96.3961,0.0,12.3,187.0,14.5,'11111222,11111222,11111222' 
TCOON,ioos:station:TCOON:057:1,2008-07-03T17:00:00Z,28.4460,-96.3961,0.0,1.9,189.0,3.9,'11111222,11111222,11111222' 
TCOON,ioos:station:TCOON:057:1,2008-07-03T18:00:00Z,28.4460,-96.3961,0.0,0.3,148.0,0.9,'11111222,11111222,11111222' 
TCOON,ioos:station:TCOON:057:1,2008-07-03T19:00:00Z,28.4460,-96.3961,0.0,2.3,175.0,4.6,'11111222,11111222,11111222' 
TCOON,ioos:station:TCOON:057:1,2008-07-03T20:00:00Z,28.4460,-96.3961,0.0,1.0,157.0,4.4,'11111222,11111222,11111222' 
TCOON,ioos:station:TCOON:057:1,2008-07-03T21:00:00Z,28.4460,-96.3961,0.0,6.9,148.0,9.5,'11111222,11111222,11111222' 
TCOON,ioos:station:TCOON:057:1,2008-07-03T22:00:00Z,28.4460,-96.3961,0.0,9.9,148.0,12.3,'11111222,11111222,11111222' 
TCOON,ioos:station:TCOON:057:1,2008-07-03T23:00:00Z,28.4460,-96.3961,0.0,9.9,161.0,11.4,'11111222,11111222,11111222' 
TCOON,ioos:station:TCOON:057:1,2008-07-04T00:00:00Z,28.4460,-96.3961,0.0,4.7,172.0,8.0,'11111222,11111222,11111222' 
TCOON,ioos:station:TCOON:057:1,2008-07-04T01:00:00Z,28.4460,-96.3961,0.0,5.4,178.0,7.2,'11111222,11111222,11111222' 
TCOON,ioos:station:TCOON:057:1,2008-07-04T02:00:00Z,28.4460,-96.3961,0.0,4.4,181.0,6.9,'11111222,11111222,11111222' 
TCOON,ioos:station:TCOON:057:1,2008-07-04T03:00:00Z,28.4460,-96.3961,0.0,1.3,178.0,4.2,'11111222,11111222,11111222' 
TCOON,ioos:station:TCOON:057:1,2008-07-04T04:00:00Z,28.4460,-96.3961,0.0,1.3,176.0,4.8,'11111222,11111222,11111222' 
TCOON,ioos:station:TCOON:057:1,2008-07-04T05:00:00Z,28.4460,-96.3961,0.0,0.3,172.0,2.9,'11111222,11111222,11111222' 
TCOON,ioos:station:TCOON:057:1,2008-07-04T06:00:00Z,28.4460,-96.3961,0.0,1.0,171.0,3.3,'11111222,11111222,11111222' 
TCOON,ioos:station:TCOON:057:1,2008-07-04T07:00:00Z,28.4460,-96.3961,0.0,2.2,152.0,3.0,'11111222,11111222,11111222' 
TCOON,ioos:station:TCOON:057:1,2008-07-04T08:00:00Z,28.4460,-96.3961,0.0,0.1,155.0,2.4,'11111222,11111222,11111222' 
TCOON,ioos:station:TCOON:057:1,2008-07-04T09:00:00Z,28.4460,-96.3961,0.0,0.3,174.0,3.8,'11111222,11111222,11111222' 
TCOON,ioos:station:TCOON:057:1,2008-07-04T10:00:00Z,28.4460,-96.3961,0.0,2.6,188.0,3.7,'11111222,11111222,11111222' 
TCOON,ioos:station:TCOON:057:1,2008-07-04T11:00:00Z,28.4460,-96.3961,0.0,0.1,161.0,2.4,'11111222,11111222,11111222' 
TCOON,ioos:station:TCOON:057:1,2008-07-04T12:00:00Z,28.4460,-96.3961,0.0,99.0,-9999.0,99.0,'11144222,99999999,11144222' 
TCOON,ioos:station:TCOON:057:1,2008-07-04T13:00:00Z,28.4460,-96.3961,0.0,99.0,-9999.0,99.0,'11144222,99999999,11144222' 
TCOON,ioos:station:TCOON:057:1,2008-07-04T14:00:00Z,28.4460,-96.3961,0.0,99.0,-9999.0,99.0,'11144222,99999999,11144222' 
TCOON,ioos:station:TCOON:057:1,2008-07-04T15:00:00Z,28.4460,-96.3961,0.0,99.0,-9999.0,99.0,'11144222,99999999,11144222' 
TCOON,ioos:station:TCOON:057:1,2008-07-04T16:00:00Z,28.4460,-96.3961,0.0,99.0,-9999.0,99.0,'11144222,99999999,11144222' 
TCOON,ioos:station:TCOON:057:1,2008-07-04T17:00:00Z,28.4460,-96.3961,0.0,99.0,-9999.0,99.0,'11144222,99999999,11144222' 
TCOON,ioos:station:TCOON:057:1,2008-07-04T18:00:00Z,28.4460,-96.3961,0.0,99.0,-9999.0,99.0,'11144222,99999999,11144222' 
TCOON,ioos:station:TCOON:057:1,2008-07-04T19:00:00Z,28.4460,-96.3961,0.0,99.0,-9999.0,99.0,'11144222,99999999,11144222' 
TCOON,ioos:station:TCOON:057:1,2008-07-04T20:00:00Z,28.4460,-96.3961,0.0,99.0,-9999.0,99.0,'11144222,99999999,11144222' 
TCOON,ioos:station:TCOON:057:1,2008-07-04T21:00:00Z,28.4460,-96.3961,0.0,99.0,-9999.0,99.0,'11144222,99999999,11144222' 
TCOON,ioos:station:TCOON:057:1,2008-07-04T22:00:00Z,28.4460,-96.3961,0.0,99.0,-9999.0,99.0,'11144222,99999999,11144222' 
TCOON,ioos:station:TCOON:057:1,2008-07-04T23:00:00Z,28.4460,-96.3961,0.0,99.0,-9999.0,99.0,'11144222,99999999,11144222' 
TCOON,ioos:station:TCOON:057:1,2008-07-05T00:00:00Z,28.4460,-96.3961,0.0,99.0,-9999.0,99.0,'11144222,99999999,11144222' 
TCOON,ioos:station:TCOON:057:1,2008-07-05T01:00:00Z,28.4460,-96.3961,0.0,99.0,-9999.0,99.0,'11144222,99999999,11144222' 
TCOON,ioos:station:TCOON:057:1,2008-07-05T02:00:00Z,28.4460,-96.3961,0.0,99.0,-9999.0,99.0,'11144222,99999999,11144222' 
TCOON,ioos:station:TCOON:057:1,2008-07-05T03:00:00Z,28.4460,-96.3961,0.0,99.0,-9999.0,99.0,'11144222,99999999,11144222' 
TCOON,ioos:station:TCOON:057:1,2008-07-05T04:00:00Z,28.4460,-96.3961,0.0,99.0,-9999.0,99.0,'11144222,99999999,11144222' 
TCOON,ioos:station:TCOON:057:1,2008-07-05T05:00:00Z,28.4460,-96.3961,0.0,99.0,-9999.0,99.0,'11144222,99999999,11144222' 
TCOON,ioos:station:TCOON:057:1,2008-07-05T06:00:00Z,28.4460,-96.3961,0.0,99.0,-9999.0,99.0,'11144222,99999999,11144222' 
TCOON,ioos:station:TCOON:057:1,2008-07-05T07:00:00Z,28.4460,-96.3961,0.0,99.0,-9999.0,99.0,'11144222,99999999,11144222' 
TCOON,ioos:station:TCOON:057:1,2008-07-05T08:00:00Z,28.4460,-96.3961,0.0,99.0,-9999.0,99.0,'11144222,99999999,11144222' 
TCOON,ioos:station:TCOON:057:1,2008-07-05T09:00:00Z,28.4460,-96.3961,0.0,99.0,-9999.0,99.0,'11144222,99999999,11144222' 
TCOON,ioos:station:TCOON:057:1,2008-07-05T10:00:00Z,28.4460,-96.3961,0.0,99.0,-9999.0,99.0,'11144222,99999999,11144222' 
TCOON,ioos:station:TCOON:057:1,2008-07-05T11:00:00Z,28.4460,-96.3961,0.0,99.0,-9999.0,99.0,'11144222,99999999,11144222' 
TCOON,ioos:station:TCOON:057:1,2008-07-05T12:00:00Z,28.4460,-96.3961,0.0,99.0,-9999.0,99.0,'11144222,99999999,11144222' 
TCOON,ioos:station:TCOON:057:1,2008-07-05T13:00:00Z,28.4460,-96.3961,0.0,99.0,-9999.0,99.0,'11144222,99999999,11144222' 
TCOON,ioos:station:TCOON:057:1,2008-07-05T14:00:00Z,28.4460,-96.3961,0.0,99.0,-9999.0,99.0,'11144222,99999999,11144222' 
TCOON,ioos:station:TCOON:057:1,2008-07-05T15:00:00Z,28.4460,-96.3961,0.0,99.0,-9999.0,99.0,'11144222,99999999,11144222' 
TCOON,ioos:station:TCOON:057:1,2008-07-05T16:00:00Z,28.4460,-96.3961,0.0,99.0,-9999.0,99.0,'11144222,99999999,11144222' 
TCOON,ioos:station:TCOON:057:1,2008-07-05T17:00:00Z,28.4460,-96.3961,0.0,99.0,-9999.0,99.0,'11144222,99999999,11144222' 
TCOON,ioos:station:TCOON:057:1,2008-07-05T18:00:00Z,28.4460,-96.3961,0.0,99.0,-9999.0,99.0,'11144222,99999999,11144222' 
TCOON,ioos:station:TCOON:057:1,2008-07-05T19:00:00Z,28.4460,-96.3961,0.0,99.0,-9999.0,99.0,'11144222,99999999,11144222' 
TCOON,ioos:station:TCOON:057:1,2008-07-05T20:00:00Z,28.4460,-96.3961,0.0,99.0,-9999.0,99.0,'11144222,99999999,11144222' 
TCOON,ioos:station:TCOON:057:1,2008-07-05T21:00:00Z,28.4460,-96.3961,0.0,99.0,-9999.0,99.0,'11144222,99999999,11144222' 
TCOON,ioos:station:TCOON:057:1,2008-07-05T22:00:00Z,28.4460,-96.3961,0.0,99.0,-9999.0,99.0,'11144222,99999999,11144222' 
TCOON,ioos:station:TCOON:057:1,2008-07-05T23:00:00Z,28.4460,-96.3961,0.0,99.0,-9999.0,99.0,'11144222,99999999,11144222' 
TCOON,ioos:station:TCOON:057:1,2008-07-06T00:00:00Z,28.4460,-96.3961,0.0,99.0,-9999.0,99.0,'11144222,99999999,11144222' 
TCOON,ioos:station:TCOON:057:1,2008-07-06T01:00:00Z,28.4460,-96.3961,0.0,99.0,-9999.0,99.0,'11144222,99999999,11144222' 
TCOON,ioos:station:TCOON:057:1,2008-07-06T02:00:00Z,28.4460,-96.3961,0.0,99.0,-9999.0,99.0,'11144222,99999999,11144222' 
TCOON,ioos:station:TCOON:057:1,2008-07-06T03:00:00Z,28.4460,-96.3961,0.0,99.0,-9999.0,99.0,'11144222,99999999,11144222' 
TCOON,ioos:station:TCOON:057:1,2008-07-06T04:00:00Z,28.4460,-96.3961,0.0,99.0,-9999.0,99.0,'11144222,99999999,11144222' 
TCOON,ioos:station:TCOON:057:1,2008-07-06T05:00:00Z,28.4460,-96.3961,0.0,99.0,-9999.0,99.0,'11144222,99999999,11144222' 
TCOON,ioos:station:TCOON:057:1,2008-07-06T06:00:00Z,28.4460,-96.3961,0.0,99.0,-9999.0,99.0,'11144222,99999999,11144222' 
TCOON,ioos:station:TCOON:057:1,2008-07-06T07:00:00Z,28.4460,-96.3961,0.0,99.0,-9999.0,99.0,'11144222,99999999,11144222' 
TCOON,ioos:station:TCOON:057:1,2008-07-06T08:00:00Z,28.4460,-96.3961,0.0,99.0,-9999.0,99.0,'11144222,99999999,11144222' 
TCOON,ioos:station:TCOON:057:1,2008-07-06T09:00:00Z,28.4460,-96.3961,0.0,99.0,-9999.0,99.0,'11144222,99999999,11144222' 
TCOON,ioos:station:TCOON:057:1,2008-07-06T10:00:00Z,28.4460,-96.3961,0.0,99.0,-9999.0,99.0,'11144222,99999999,11144222' 
TCOON,ioos:station:TCOON:057:1,2008-07-06T11:00:00Z,28.4460,-96.3961,0.0,99.0,-9999.0,99.0,'11144222,99999999,11144222' 
TCOON,ioos:station:TCOON:057:1,2008-07-06T12:00:00Z,28.4460,-96.3961,0.0,99.0,-9999.0,99.0,'11144222,99999999,11144222' 
TCOON,ioos:station:TCOON:057:1,2008-07-06T13:00:00Z,28.4460,-96.3961,0.0,99.0,-9999.0,99.0,'11144222,99999999,11144222' 
TCOON,ioos:station:TCOON:057:1,2008-07-06T14:00:00Z,28.4460,-96.3961,0.0,99.0,-9999.0,99.0,'11144222,99999999,11144222' 
TCOON,ioos:station:TCOON:057:1,2008-07-06T15:00:00Z,28.4460,-96.3961,0.0,99.0,-9999.0,99.0,'11144222,99999999,11144222' 
TCOON,ioos:station:TCOON:057:1,2008-07-06T16:00:00Z,28.4460,-96.3961,0.0,99.0,-9999.0,99.0,'11144222,99999999,11144222' 
TCOON,ioos:station:TCOON:057:1,2008-07-06T17:00:00Z,28.4460,-96.3961,0.0,99.0,-9999.0,99.0,'11144222,99999999,11144222' 
TCOON,ioos:station:TCOON:057:1,2008-07-06T18:00:00Z,28.4460,-96.3961,0.0,99.0,-9999.0,99.0,'11144222,99999999,11144222' 
TCOON,ioos:station:TCOON:057:1,2008-07-06T19:00:00Z,28.4460,-96.3961,0.0,99.0,-9999.0,99.0,'11144222,99999999,11144222' 
TCOON,ioos:station:TCOON:057:1,2008-07-06T20:00:00Z,28.4460,-96.3961,0.0,99.0,-9999.0,99.0,'11144222,99999999,11144222' 
TCOON,ioos:station:TCOON:057:1,2008-07-06T21:00:00Z,28.4460,-96.3961,0.0,99.0,-9999.0,99.0,'11144222,99999999,11144222' 
TCOON,ioos:station:TCOON:057:1,2008-07-06T22:00:00Z,28.4460,-96.3961,0.0,99.0,-9999.0,99.0,'11144222,99999999,11144222' 
TCOON,ioos:station:TCOON:057:1,2008-07-06T23:00:00Z,28.4460,-96.3961,0.0,99.0,-9999.0,99.0,'11144222,99999999,11144222' 
TCOON,ioos:station:TCOON:057:1,2008-07-07T00:00:00Z,28.4460,-96.3961,0.0,99.0,-9999.0,99.0,'11144222,99999999,11144222' 
TCOON,ioos:station:TCOON:057:1,2008-07-07T01:00:00Z,28.4460,-96.3961,0.0,99.0,-9999.0,99.0,'11144222,99999999,11144222' 
TCOON,ioos:station:TCOON:057:1,2008-07-07T02:00:00Z,28.4460,-96.3961,0.0,99.0,-9999.0,99.0,'11144222,99999999,11144222' 
TCOON,ioos:station:TCOON:057:1,2008-07-07T03:00:00Z,28.4460,-96.3961,0.0,99.0,-9999.0,99.0,'11144222,99999999,11144222' 
TCOON,ioos:station:TCOON:057:1,2008-07-07T04:00:00Z,28.4460,-96.3961,0.0,99.0,-9999.0,99.0,'11144222,99999999,11144222' 
TCOON,ioos:station:TCOON:057:1,2008-07-07T05:00:00Z,28.4460,-96.3961,0.0,99.0,-9999.0,99.0,'11144222,99999999,11144222' 
TCOON,ioos:station:TCOON:057:1,2008-07-07T06:00:00Z,28.4460,-96.3961,0.0,99.0,-9999.0,99.0,'11144222,99999999,11144222' 
TCOON,ioos:station:TCOON:057:1,2008-07-07T07:00:00Z,28.4460,-96.3961,0.0,99.0,-9999.0,99.0,'11144222,99999999,11144222' 
TCOON,ioos:station:TCOON:057:1,2008-07-07T08:00:00Z,28.4460,-96.3961,0.0,99.0,-9999.0,99.0,'11144222,99999999,11144222' 
TCOON,ioos:station:TCOON:057:1,2008-07-07T09:00:00Z,28.4460,-96.3961,0.0,99.0,-9999.0,99.0,'11144222,99999999,11144222' 
TCOON,ioos:station:TCOON:057:1,2008-07-07T10:00:00Z,28.4460,-96.3961,0.0,99.0,-9999.0,99.0,'11144222,99999999,11144222' 
TCOON,ioos:station:TCOON:057:1,2008-07-07T11:00:00Z,28.4460,-96.3961,0.0,99.0,-9999.0,99.0,'11144222,99999999,11144222' 
TCOON,ioos:station:TCOON:057:1,2008-07-07T12:00:00Z,28.4460,-96.3961,0.0,99.0,-9999.0,99.0,'11144222,99999999,11144222' 
TCOON,ioos:station:TCOON:057:1,2008-07-07T13:00:00Z,28.4460,-96.3961,0.0,99.0,-9999.0,99.0,'11144222,99999999,11144222' 
TCOON,ioos:station:TCOON:057:1,2008-07-07T14:00:00Z,28.4460,-96.3961,0.0,99.0,-9999.0,99.0,'11144222,99999999,11144222' 
TCOON,ioos:station:TCOON:057:1,2008-07-07T15:00:00Z,28.4460,-96.3961,0.0,99.0,-9999.0,99.0,'11144222,99999999,11144222' 
TCOON,ioos:station:TCOON:057:1,2008-07-07T16:00:00Z,28.4460,-96.3961,0.0,99.0,-9999.0,99.0,'11144222,99999999,11144222' 
TCOON,ioos:station:TCOON:057:1,2008-07-07T17:00:00Z,28.4460,-96.3961,0.0,99.0,-9999.0,99.0,'11144222,99999999,11144222' 
TCOON,ioos:station:TCOON:057:1,2008-07-07T18:00:00Z,28.4460,-96.3961,0.0,99.0,-9999.0,99.0,'11144222,99999999,11144222' 
TCOON,ioos:station:TCOON:057:1,2008-07-07T19:00:00Z,28.4460,-96.3961,0.0,99.0,-9999.0,99.0,'11144222,99999999,11144222' 
TCOON,ioos:station:TCOON:057:1,2008-07-07T20:00:00Z,28.4460,-96.3961,0.0,99.0,-9999.0,99.0,'11144222,99999999,11144222' 
TCOON,ioos:station:TCOON:057:1,2008-07-07T21:00:00Z,28.4460,-96.3961,0.0,99.0,-9999.0,99.0,'11144222,99999999,11144222' 
TCOON,ioos:station:TCOON:057:1,2008-07-07T22:00:00Z,28.4460,-96.3961,0.0,99.0,-9999.0,99.0,'11144222,99999999,11144222' 
TCOON,ioos:station:TCOON:057:1,2008-07-07T23:00:00Z,28.4460,-96.3961,0.0,99.0,-9999.0,99.0,'11144222,99999999,11144222' 
TCOON,ioos:station:TCOON:057:1,2008-07-08T00:00:00Z,28.4460,-96.3961,0.0,99.0,-9999.0,99.0,'11144222,99999999,11144222' 
TCOON,ioos:station:TCOON:057:1,2008-07-08T01:00:00Z,28.4460,-96.3961,0.0,99.0,-9999.0,99.0,'11144222,99999999,11144222' 
TCOON,ioos:station:TCOON:057:1,2008-07-08T02:00:00Z,28.4460,-96.3961,0.0,99.0,-9999.0,99.0,'11144222,99999999,11144222' 
TCOON,ioos:station:TCOON:057:1,2008-07-08T03:00:00Z,28.4460,-96.3961,0.0,99.0,-9999.0,99.0,'11144222,99999999,11144222' 
TCOON,ioos:station:TCOON:057:1,2008-07-08T04:00:00Z,28.4460,-96.3961,0.0,99.0,-9999.0,99.0,'11144222,99999999,11144222' 
TCOON,ioos:station:TCOON:057:1,2008-07-08T05:00:00Z,28.4460,-96.3961,0.0,99.0,-9999.0,99.0,'11144222,99999999,11144222' 
TCOON,ioos:station:TCOON:057:1,2008-07-08T06:00:00Z,28.4460,-96.3961,0.0,99.0,-9999.0,99.0,'11144222,99999999,11144222' 
TCOON,ioos:station:TCOON:057:1,2008-07-08T07:00:00Z,28.4460,-96.3961,0.0,99.0,-9999.0,99.0,'11144222,99999999,11144222' 
TCOON,ioos:station:TCOON:057:1,2008-07-08T08:00:00Z,28.4460,-96.3961,0.0,99.0,-9999.0,99.0,'11144222,99999999,11144222' 
TCOON,ioos:station:TCOON:057:1,2008-07-08T09:00:00Z,28.4460,-96.3961,0.0,99.0,-9999.0,99.0,'11144222,99999999,11144222' 
TCOON,ioos:station:TCOON:057:1,2008-07-08T10:00:00Z,28.4460,-96.3961,0.0,99.0,-9999.0,99.0,'11144222,99999999,11144222' 
TCOON,ioos:station:TCOON:057:1,2008-07-08T11:00:00Z,28.4460,-96.3961,0.0,99.0,-9999.0,99.0,'11144222,99999999,11144222' 
TCOON,ioos:station:TCOON:057:1,2008-07-08T12:00:00Z,28.4460,-96.3961,0.0,99.0,-9999.0,99.0,'11144222,99999999,11144222' 
TCOON,ioos:station:TCOON:057:1,2008-07-08T13:00:00Z,28.4460,-96.3961,0.0,99.0,-9999.0,99.0,'11144222,99999999,11144222' 
TCOON,ioos:station:TCOON:057:1,2008-07-08T14:00:00Z,28.4460,-96.3961,0.0,99.0,-9999.0,99.0,'11144222,99999999,11144222' 
TCOON,ioos:station:TCOON:057:1,2008-07-08T15:00:00Z,28.4460,-96.3961,0.0,99.0,-9999.0,99.0,'11144222,99999999,11144222' 
TCOON,ioos:station:TCOON:057:1,2008-07-08T16:00:00Z,28.4460,-96.3961,0.0,99.0,-9999.0,99.0,'11144222,99999999,11144222' 
TCOON,ioos:station:TCOON:057:1,2008-07-08T17:00:00Z,28.4460,-96.3961,0.0,99.0,-9999.0,99.0,'11144222,99999999,11144222' 
TCOON,ioos:station:TCOON:057:1,2008-07-08T18:00:00Z,28.4460,-96.3961,0.0,99.0,-9999.0,99.0,'11144222,99999999,11144222' 
TCOON,ioos:station:TCOON:057:1,2008-07-08T19:00:00Z,28.4460,-96.3961,0.0,99.0,-9999.0,99.0,'11144222,99999999,11144222' 
TCOON,ioos:station:TCOON:057:1,2008-07-08T20:00:00Z,28.4460,-96.3961,0.0,99.0,-9999.0,99.0,'11144222,99999999,11144222' 
TCOON,ioos:station:TCOON:057:1,2008-07-08T21:00:00Z,28.4460,-96.3961,0.0,99.0,-9999.0,99.0,'11144222,99999999,11144222' 
TCOON,ioos:station:TCOON:057:1,2008-07-08T22:00:00Z,28.4460,-96.3961,0.0,99.0,-9999.0,99.0,'11144222,99999999,11144222' 
TCOON,ioos:station:TCOON:057:1,2008-07-08T23:00:00Z,28.4460,-96.3961,0.0,99.0,-9999.0,99.0,'11144222,99999999,11144222' 
TCOON,ioos:station:TCOON:057:1,2008-07-09T00:00:00Z,28.4460,-96.3961,0.0,99.0,-9999.0,99.0,'11144222,99999999,11144222' 
TCOON,ioos:station:TCOON:057:1,2008-07-09T01:00:00Z,28.4460,-96.3961,0.0,99.0,-9999.0,99.0,'11144222,99999999,11144222' 
TCOON,ioos:station:TCOON:057:1,2008-07-09T02:00:00Z,28.4460,-96.3961,0.0,99.0,-9999.0,99.0,'11144222,99999999,11144222' 
TCOON,ioos:station:TCOON:057:1,2008-07-09T03:00:00Z,28.4460,-96.3961,0.0,99.0,-9999.0,99.0,'11144222,99999999,11144222' 
TCOON,ioos:station:TCOON:057:1,2008-07-09T04:00:00Z,28.4460,-96.3961,0.0,99.0,-9999.0,99.0,'11144222,99999999,11144222' 
TCOON,ioos:station:TCOON:057:1,2008-07-09T05:00:00Z,28.4460,-96.3961,0.0,99.0,-9999.0,99.0,'11144222,99999999,11144222' 
TCOON,ioos:station:TCOON:057:1,2008-07-09T06:00:00Z,28.4460,-96.3961,0.0,99.0,-9999.0,99.0,'11144222,99999999,11144222' 
TCOON,ioos:station:TCOON:057:1,2008-07-09T07:00:00Z,28.4460,-96.3961,0.0,99.0,-9999.0,99.0,'11144222,99999999,11144222' 
TCOON,ioos:station:TCOON:057:1,2008-07-09T08:00:00Z,28.4460,-96.3961,0.0,99.0,-9999.0,99.0,'11144222,99999999,11144222' 
TCOON,ioos:station:TCOON:057:1,2008-07-09T09:00:00Z,28.4460,-96.3961,0.0,99.0,-9999.0,99.0,'11144222,99999999,11144222' 